Tillamook, OR

1:59 PM PST on February 12, 2016 (GMT -0800)
Tillamook

Weather History for KTMK - April, 2013

Change the Weather History Date:

Monday, April 15, 2013

  Actual Average (KMMV) Record (KMMV)
Temperature  
Mean Temperature 47 °F 50 °F  
Max Temperature 53 °F 61 °F 84 °F (1897)
Min Temperature 41 °F 39 °F 28 °F (1924)
Degree Days  
Heating Degree Days 18 15  
Month to date heating degree days 239  
Since 1 July heating degree days 4190  
Cooling Degree Days 0 0  
Month to date cooling degree days 0  
Year to date cooling degree days 0  
Moisture  
Dew Point 40 °F    
Average Humidity 83    
Maximum Humidity 100    
Minimum Humidity 58    
Precipitation  
Precipitation 0.08 in 0.09 in 0.83 in (2011)
Month to date precipitation 1.65  
Year to date precipitation 16.22  
Sea Level Pressure  
Sea Level Pressure 30.06 in    
Wind  
Wind Speed 4 mph (WNW)    
Max Wind Speed 18 mph    
Max Gust Speed 23 mph    
Visibility 10 miles    
Events Rain    
T = Trace of Precipitation, MM = Missing Value Source: NWS Daily Summary

Daily Weather History Graph

Daily Weather History Graph

Search for Another Location

Airport or City:

Trip Planner

Search our weather history database for the weather conditions in past years. The results will help you decide how hot, cold, wet, or windy it might be!

Date:

Astronomy

Apr. 15, 2013 Rise Set
Actual Time 7:29 AM MDT 9:01 PM MDT
Civil Twilight 6:58 AM MDT 9:32 PM MDT
Nautical Twilight 6:20 AM MDT 10:10 PM MDT
Astronomical Twilight 5:40 AM MDT 10:51 PM MDT
Moon 10:51 AM MDT (4/15) 1:26 AM MDT (4/15)
Length of Visible Light 14h 34m
Length of Day
13h 32m
Waxing Crescent, 25% of the Moon is Illuminated
Apr 15
Waxing Crescent
Apr 18
First Quarter
Apr 25
Full
May 2
Last Quarter
May 9
New

Hourly Weather History & Observations

Time (MDT) Temp. Windchill Dew Point Humidity Pressure Visibility Wind Dir Wind Speed Gust Speed Precip Events Conditions
12:15 AM 41.0 °F - 39.2 °F 93% 30.00 in 10.0 mi Calm Calm - N/A Rain Light Rain
12:35 AM 42.8 °F - 41.0 °F 93% 29.99 in 10.0 mi Calm Calm - N/A   Overcast
12:55 AM 41.0 °F 39.0 °F 41.0 °F 100% 30.00 in 10.0 mi SSE 3.5 mph - N/A Rain Light Rain
1:15 AM 42.8 °F 38.6 °F 41.0 °F 93% 29.99 in 7.0 mi SE 6.9 mph - 0.01 in Rain Light Rain
1:35 AM 41.0 °F - 41.0 °F 100% 30.00 in 10.0 mi Calm Calm - 0.01 in   Overcast
1:55 AM 41.0 °F - 41.0 °F 100% 30.00 in 10.0 mi Calm Calm - 0.01 in   Overcast
2:15 AM 41.0 °F - 41.0 °F 100% 30.00 in 10.0 mi Calm Calm - N/A   Overcast
2:35 AM 41.0 °F - 41.0 °F 100% 30.00 in 10.0 mi Calm Calm - N/A   Overcast
2:55 AM 41.0 °F - 41.0 °F 100% 29.99 in 10.0 mi Calm Calm - N/A   Light Drizzle
3:15 AM 41.0 °F - 41.0 °F 100% 29.99 in 10.0 mi Calm Calm - N/A   Overcast
3:35 AM 41.0 °F 38.0 °F 41.0 °F 100% 29.98 in 10.0 mi SE 4.6 mph - N/A   Overcast
3:55 AM 41.0 °F - 41.0 °F 100% 29.98 in 10.0 mi Calm Calm - N/A   Overcast
4:15 AM 41.0 °F - 41.0 °F 100% 29.98 in 10.0 mi Calm Calm - N/A   Overcast
4:35 AM 41.0 °F - 41.0 °F 100% 29.99 in 10.0 mi Calm Calm - N/A   Overcast
4:55 AM 41.0 °F - 41.0 °F 100% 29.98 in 10.0 mi Calm Calm - N/A   Light Drizzle
5:15 AM 41.0 °F - 41.0 °F 100% 29.99 in 10.0 mi Calm Calm - N/A   Drizzle
5:35 AM 41.0 °F - 41.0 °F 100% 29.99 in 5.0 mi Calm Calm - 0.02 in Rain Rain
5:55 AM 41.0 °F - 41.0 °F 100% 29.99 in 7.0 mi Calm Calm - 0.04 in Rain Light Rain
6:15 AM 41.0 °F 38.0 °F 41.0 °F 100% 29.99 in 10.0 mi ENE 4.6 mph - 0.01 in   Overcast
6:35 AM 41.0 °F - 39.2 °F 93% 29.99 in 10.0 mi Calm Calm - 0.01 in   Overcast
6:55 AM 41.0 °F - 39.2 °F 93% 29.99 in 7.0 mi Calm Calm - 0.01 in Rain Light Rain
7:15 AM 41.0 °F 39.0 °F 39.2 °F 93% 29.99 in 10.0 mi SE 3.5 mph - 0.01 in Rain Light Rain
7:35 AM 41.0 °F 39.0 °F 39.2 °F 93% 29.99 in 10.0 mi SE 3.5 mph - 0.01 in   Overcast
7:55 AM 41.0 °F - 39.2 °F 93% 30.00 in 10.0 mi Calm Calm - 0.01 in Rain Rain
8:15 AM 41.0 °F - 39.2 °F 93% 30.00 in 10.0 mi Calm Calm - N/A   Light Drizzle
8:35 AM 41.0 °F - 39.2 °F 93% 30.00 in 10.0 mi Calm Calm - N/A   Scattered Clouds
8:55 AM 41.0 °F - 39.2 °F 93% 30.01 in 10.0 mi Calm Calm - N/A   Scattered Clouds
9:15 AM 41.0 °F - 41.0 °F 100% 30.02 in 10.0 mi Calm Calm - N/A   Scattered Clouds
9:35 AM 42.8 °F - 41.0 °F 93% 30.02 in 10.0 mi Calm Calm - N/A   Mostly Cloudy
9:55 AM 42.8 °F - 39.2 °F 87% 30.03 in 10.0 mi Calm Calm - N/A   Overcast
10:15 AM 44.6 °F - 39.2 °F 81% 30.03 in 10.0 mi Calm Calm - N/A   Overcast
10:35 AM 44.6 °F - 37.4 °F 76% 30.03 in 10.0 mi Calm Calm - N/A   Mostly Cloudy
10:55 AM 46.4 °F - 37.4 °F 71% 30.03 in 10.0 mi Calm Calm - N/A   Mostly Cloudy
11:15 AM 48.2 °F - 39.2 °F 71% 30.03 in 10.0 mi Calm Calm - N/A   Scattered Clouds
11:35 AM 48.2 °F - 39.2 °F 71% 30.04 in 10.0 mi North 3.5 mph - N/A   Mostly Cloudy
11:55 AM 50.0 °F - 37.4 °F 62% 30.04 in 10.0 mi NW 5.8 mph - N/A   Overcast
12:15 PM 46.4 °F - 37.4 °F 71% 30.05 in 7.0 mi Calm Calm - N/A   Light Drizzle
12:35 PM 48.2 °F - 39.2 °F 71% 30.05 in 10.0 mi WSW 5.8 mph - N/A   Mostly Cloudy
12:55 PM 48.2 °F - 39.2 °F 71% 30.05 in 10.0 mi WNW 6.9 mph - N/A   Mostly Cloudy
1:15 PM 50.0 °F - 39.2 °F 66% 30.06 in 10.0 mi NW 8.1 mph - N/A   Mostly Cloudy
1:35 PM 50.0 °F - 39.2 °F 66% 30.06 in 10.0 mi NW 6.9 mph - N/A   Scattered Clouds
1:55 PM 50.0 °F - 39.2 °F 66% 30.06 in 10.0 mi WNW 5.8 mph - N/A   Mostly Cloudy
2:15 PM 51.8 °F - 37.4 °F 58% 30.06 in 10.0 mi West 5.8 mph - N/A   Scattered Clouds
2:35 PM 51.8 °F - 39.2 °F 62% 30.06 in 10.0 mi NW 6.9 mph - N/A   Clear
2:55 PM 51.8 °F - 39.2 °F 62% 30.06 in 10.0 mi NW 13.8 mph - N/A   Scattered Clouds
3:15 PM 50.0 °F - 39.2 °F 66% 30.07 in 10.0 mi NW 12.7 mph - N/A   Overcast
3:35 PM 48.2 °F - 42.8 °F 82% 30.08 in 10.0 mi WNW 10.4 mph - N/A Rain Light Rain
4:15 PM 51.8 °F - 41.0 °F 67% 30.08 in 10.0 mi WNW 15.0 mph - N/A   Mostly Cloudy
4:35 PM 53.6 °F - 42.8 °F 67% 30.08 in 10.0 mi WNW 16.1 mph - N/A   Scattered Clouds
4:55 PM 50.0 °F - 39.2 °F 66% 30.09 in 10.0 mi NW 17.3 mph 20.7 mph N/A   Overcast
5:15 PM 50.0 °F - 41.0 °F 71% 30.09 in 10.0 mi West 11.5 mph 18.4 mph 0.01 in Rain Light Rain
5:35 PM 51.8 °F - 42.8 °F 71% 30.09 in 10.0 mi WNW 16.1 mph - 0.01 in   Mostly Cloudy
5:55 PM 51.8 °F - 42.8 °F 71% 30.10 in 10.0 mi WNW 17.3 mph - 0.01 in   Mostly Cloudy
6:15 PM 51.8 °F - 42.8 °F 71% 30.10 in 10.0 mi WNW 17.3 mph 20.7 mph N/A   Mostly Cloudy
6:35 PM 51.8 °F - 41.0 °F 67% 30.11 in 10.0 mi WNW 17.3 mph 23.0 mph N/A   Scattered Clouds
6:55 PM 50.0 °F - 41.0 °F 71% 30.11 in 10.0 mi WNW 17.3 mph 21.9 mph N/A   Scattered Clouds
7:15 PM 50.0 °F - 41.0 °F 71% 30.12 in 10.0 mi WNW 16.1 mph 21.9 mph N/A   Overcast
7:35 PM 51.8 °F - 42.8 °F 71% 30.13 in 10.0 mi WNW 16.1 mph 23.0 mph N/A   Overcast
7:55 PM 51.8 °F - 42.8 °F 71% 30.13 in 10.0 mi WNW 18.4 mph - N/A   Overcast
8:35 PM 50.0 °F - 41.0 °F 71% 30.14 in 10.0 mi WNW 10.4 mph - N/A   Scattered Clouds
8:55 PM 48.2 °F - 41.0 °F 76% 30.15 in 10.0 mi WNW 6.9 mph - N/A   Mostly Cloudy
9:15 PM 48.2 °F - 41.0 °F 76% 30.16 in 10.0 mi NW 5.8 mph - N/A   Scattered Clouds
9:35 PM 46.4 °F 45.2 °F 41.0 °F 81% 30.16 in 10.0 mi WNW 3.5 mph - N/A   Clear
9:55 PM 46.4 °F 42.4 °F 39.2 °F 76% 30.17 in 10.0 mi WNW 8.1 mph - N/A   Clear
10:15 PM 48.2 °F - 39.2 °F 71% 30.18 in 10.0 mi WNW 4.6 mph - N/A   Clear
10:35 PM 46.4 °F - 39.2 °F 76% 30.19 in 10.0 mi Calm Calm - N/A   Clear
10:55 PM 44.6 °F 43.1 °F 41.0 °F 87% 30.19 in 10.0 mi ESE 3.5 mph - N/A   Clear
11:15 PM 42.8 °F 39.3 °F 39.2 °F 87% 30.20 in 10.0 mi SE 5.8 mph - N/A   Clear
11:35 PM 42.8 °F 40.1 °F 39.2 °F 87% 30.20 in 10.0 mi SE 4.6 mph - N/A   Clear
11:55 PM 41.0 °F 39.0 °F 39.2 °F 93% 30.21 in 10.0 mi East 3.5 mph - N/A   Clear